DAL762 KDTW-KPWM

Flight info

Callsign DAL762
Flight time 0h 59m
Altitude 37000
Route HHOWE4 LNCON JHW Q82 PONCT CAM CDOGG4
Aircraft A319/M-SDE3FGHIRWY/LB1

Departure

Time 2026-04-20 19:33
Airport Detroit Metropolitan Wayne County Airport (KDTW)

Arrival

Time 2026-04-20 20:33
Airport Portland International Jetport (KPWM)
Time Latitude Longitude Altitude Speed Heading
2026-04-20 19:10 42.21214 -83.35451 646 ft 0 kts 298°
2026-04-20 19:24 42.21204 -83.35427 646 ft 2 kts 298°
2026-04-20 19:24 42.21193 -83.35405 646 ft 4 kts 343°
2026-04-20 19:24 42.21172 -83.35409 647 ft 4 kts 28°
2026-04-20 19:24 42.21162 -83.35417 646 ft 0 kts 28°
2026-04-20 19:26 42.21186 -83.35399 648 ft 8 kts 28°
2026-04-20 19:26 42.21259 -83.35345 647 ft 16 kts 30°
2026-04-20 19:27 42.21370 -83.35270 646 ft 19 kts 28°
2026-04-20 19:27 42.21470 -83.35158 648 ft 19 kts 36°
2026-04-20 19:27 42.21575 -83.35059 646 ft 19 kts 45°
2026-04-20 19:27 42.21669 -83.34937 648 ft 19 kts 44°
2026-04-20 19:28 42.21765 -83.34816 647 ft 19 kts 44°
2026-04-20 19:28 42.21835 -83.34686 646 ft 16 kts 87°
2026-04-20 19:28 42.21839 -83.34533 649 ft 16 kts 71°
2026-04-20 19:28 42.21927 -83.34448 646 ft 16 kts 29°
2026-04-20 19:29 42.22027 -83.34374 646 ft 17 kts 28°
2026-04-20 19:29 42.22141 -83.34290 646 ft 20 kts 29°
2026-04-20 19:29 42.22262 -83.34203 646 ft 19 kts 29°
2026-04-20 19:29 42.22378 -83.34116 646 ft 19 kts 28°
2026-04-20 19:30 42.22492 -83.34031 646 ft 18 kts 28°
2026-04-20 19:30 42.22600 -83.33953 646 ft 18 kts 29°
2026-04-20 19:30 42.22706 -83.33874 646 ft 17 kts 29°
2026-04-20 19:30 42.22809 -83.33798 646 ft 16 kts 28°
2026-04-20 19:31 42.22856 -83.33704 644 ft 12 kts 113°
2026-04-20 19:31 42.22808 -83.33635 645 ft 8 kts 180°
2026-04-20 19:31 42.22784 -83.33650 645 ft 0 kts 208°
2026-04-20 19:32 42.22664 -83.33739 648 ft 58 kts 208°
2026-04-20 19:32 42.22079 -83.34171 646 ft 131 kts 208°
2026-04-20 19:33 42.21126 -83.34876 831 ft 166 kts 210°
2026-04-20 19:33 42.20151 -83.35611 1668 ft 160 kts 213°
2026-04-20 19:33 42.19082 -83.36088 2428 ft 167 kts 189°
2026-04-20 19:33 42.17857 -83.35927 2856 ft 190 kts 168°
2026-04-20 19:34 42.16478 -83.35506 3231 ft 216 kts 168°
2026-04-20 19:34 42.14931 -83.35040 3799 ft 236 kts 169°
2026-04-20 19:34 42.13301 -83.34548 4699 ft 243 kts 168°
2026-04-20 19:34 42.11717 -83.33670 5657 ft 251 kts 146°
2026-04-20 19:35 42.10469 -83.32000 6601 ft 257 kts 123°
2026-04-20 19:35 42.09763 -83.29702 7153 ft 276 kts 96°
2026-04-20 19:35 42.09762 -83.27101 7951 ft 282 kts 82°
2026-04-20 19:35 42.09903 -83.24445 8843 ft 287 kts 79°
2026-04-20 19:36 42.10303 -83.21802 9720 ft 291 kts 71°
2026-04-20 19:36 42.10785 -83.19091 10381 ft 307 kts 70°
2026-04-20 19:36 42.11307 -83.16192 10701 ft 331 kts 71°
2026-04-20 19:36 42.11963 -83.13158 11249 ft 341 kts 64°
2026-04-20 19:37 42.12769 -83.10188 12011 ft 346 kts 64°
2026-04-20 19:37 42.13613 -83.07059 12828 ft 351 kts 63°
2026-04-20 19:37 42.14448 -83.03946 13622 ft 356 kts 63°
2026-04-20 19:37 42.15296 -83.00787 14377 ft 360 kts 63°
2026-04-20 19:38 42.15863 -82.98678 14833 ft 363 kts 63°
2026-04-20 19:38 42.16728 -82.95469 15533 ft 367 kts 62°
2026-04-20 19:38 42.17603 -82.92215 16233 ft 370 kts 62°
2026-04-20 19:38 42.18484 -82.88940 16930 ft 374 kts 62°
2026-04-20 19:39 42.19372 -82.85631 17634 ft 377 kts 62°
2026-04-20 19:39 42.20269 -82.82280 18317 ft 381 kts 62°
2026-04-20 19:39 42.21172 -82.78904 18955 ft 385 kts 62°
2026-04-20 19:39 42.22081 -82.75500 19623 ft 387 kts 61°
2026-04-20 19:40 42.22996 -82.72068 20277 ft 389 kts 60°
2026-04-20 19:40 42.23913 -82.68623 20899 ft 392 kts 60°
2026-04-20 19:40 42.24725 -82.65079 21495 ft 403 kts 68°
2026-04-20 19:40 42.25095 -82.61260 22092 ft 418 kts 78°
2026-04-20 19:41 42.25246 -82.57320 22677 ft 421 kts 78°
2026-04-20 19:41 42.25396 -82.53360 23242 ft 424 kts 78°
2026-04-20 19:41 42.25549 -82.49370 23787 ft 427 kts 78°
2026-04-20 19:41 42.25683 -82.45346 24263 ft 432 kts 79°
2026-04-20 19:42 42.25725 -82.41266 24707 ft 437 kts 81°
2026-04-20 19:42 42.25686 -82.37203 25217 ft 440 kts 82°
2026-04-20 19:42 42.25602 -82.33064 25681 ft 442 kts 82°
2026-04-20 19:42 42.25507 -82.28844 26117 ft 445 kts 82°
2026-04-20 19:43 42.25450 -82.26079 26399 ft 446 kts 82°
2026-04-20 19:43 42.25356 -82.20510 26959 ft 449 kts 81°
2026-04-20 19:43 42.25304 -82.16231 27380 ft 452 kts 81°
2026-04-20 19:43 42.25261 -82.12032 27792 ft 455 kts 81°
2026-04-20 19:44 42.25216 -82.07746 28195 ft 457 kts 80°
2026-04-20 19:44 42.25170 -82.03438 28597 ft 460 kts 80°
2026-04-20 19:44 42.25118 -81.99110 28987 ft 463 kts 81°
2026-04-20 19:44 42.25060 -81.94747 29370 ft 466 kts 81°
2026-04-20 19:45 42.24998 -81.90371 29744 ft 469 kts 81°
2026-04-20 19:45 42.24933 -81.85956 30104 ft 471 kts 81°
2026-04-20 19:45 42.24867 -81.81529 30451 ft 474 kts 80°
2026-04-20 19:45 42.24799 -81.77066 30749 ft 477 kts 81°
2026-04-20 19:46 42.24730 -81.72586 31026 ft 479 kts 81°
2026-04-20 19:46 42.24658 -81.68072 31294 ft 482 kts 81°
2026-04-20 19:46 42.24582 -81.63548 31653 ft 483 kts 81°
2026-04-20 19:46 42.24501 -81.59021 32070 ft 482 kts 82°
2026-04-20 19:47 42.24419 -81.54501 32419 ft 482 kts 82°
2026-04-20 19:47 42.24338 -81.49973 32765 ft 483 kts 82°
2026-04-20 19:47 42.24270 -81.45447 33113 ft 483 kts 82°
2026-04-20 19:47 42.24214 -81.40926 33452 ft 483 kts 82°
2026-04-20 19:48 42.24161 -81.36380 33795 ft 484 kts 82°
2026-04-20 19:48 42.24106 -81.31838 34143 ft 484 kts 82°
2026-04-20 19:48 42.24046 -81.27295 34514 ft 485 kts 83°
2026-04-20 19:48 42.23983 -81.22737 34738 ft 487 kts 83°
2026-04-20 19:49 42.23917 -81.18162 34986 ft 488 kts 83°
2026-04-20 19:49 42.23845 -81.13578 35249 ft 489 kts 84°
2026-04-20 19:49 42.23768 -81.08986 35511 ft 490 kts 84°
2026-04-20 19:49 42.23689 -81.04385 35767 ft 490 kts 84°
2026-04-20 19:50 42.23609 -80.99793 36015 ft 490 kts 84°
2026-04-20 19:50 42.23528 -80.95190 36256 ft 491 kts 84°
2026-04-20 19:50 42.23444 -80.90579 36533 ft 491 kts 85°
2026-04-20 19:50 42.23358 -80.85976 36741 ft 492 kts 85°
2026-04-20 19:51 42.23273 -80.81415 36950 ft 493 kts 85°
2026-04-20 19:51 42.23035 -80.68940 37476 ft 495 kts 86°
2026-04-20 19:51 42.22729 -80.53723 37497 ft 493 kts 86°
2026-04-20 19:52 42.22324 -80.35219 37439 ft 495 kts 86°
2026-04-20 19:52 42.21879 -80.16768 37429 ft 495 kts 86°
2026-04-20 19:53 42.21338 -79.95412 37433 ft 495 kts 87°
2026-04-20 19:53 42.20316 -79.58226 37444 ft 497 kts 88°
2026-04-20 19:54 42.19160 -79.20941 37420 ft 497 kts 89°
2026-04-20 19:54 42.20120 -79.02592 37410 ft 488 kts 76°
2026-04-20 19:54 42.22410 -78.84511 37382 ft 490 kts 76°
2026-04-20 19:55 42.26936 -78.48199 37379 ft 491 kts 77°
2026-04-20 19:55 42.31387 -78.11735 37375 ft 492 kts 77°
2026-04-20 19:56 42.35724 -77.75185 37366 ft 493 kts 78°
2026-04-20 19:56 42.39933 -77.38510 37380 ft 494 kts 78°
2026-04-20 19:57 42.44037 -77.01728 37333 ft 495 kts 79°
2026-04-20 19:57 42.48033 -76.64720 37345 ft 497 kts 80°
2026-04-20 19:58 42.51941 -76.27698 37333 ft 497 kts 81°
2026-04-20 19:58 42.55719 -75.90610 37312 ft 498 kts 81°
2026-04-20 19:59 42.59376 -75.53358 37287 ft 498 kts 82°
2026-04-20 19:59 42.62926 -75.16056 37305 ft 498 kts 83°
2026-04-20 20:00 42.66359 -74.78690 37311 ft 498 kts 83°
2026-04-20 20:00 42.69651 -74.41338 37287 ft 498 kts 84°
2026-04-20 20:01 42.72828 -74.03873 37284 ft 499 kts 84°
2026-04-20 20:01 42.81358 -73.68899 37264 ft 498 kts 53°
2026-04-20 20:02 42.97513 -73.38055 37234 ft 501 kts 54°
2026-04-20 20:02 43.02508 -73.20405 37238 ft 500 kts 74°
2026-04-20 20:02 43.05397 -73.07735 37274 ft 500 kts 74°
2026-04-20 20:03 43.07427 -72.98641 37269 ft 500 kts 75°
2026-04-20 20:03 43.09417 -72.89527 37245 ft 501 kts 75°
2026-04-20 20:04 43.11412 -72.80379 37252 ft 501 kts 75°
2026-04-20 20:04 43.12413 -72.75792 36594 ft 507 kts 75°
2026-04-20 20:04 43.13433 -72.71122 35367 ft 517 kts 75°
2026-04-20 20:04 43.14460 -72.66416 34651 ft 514 kts 75°
2026-04-20 20:05 43.15487 -72.61724 33708 ft 514 kts 74°
2026-04-20 20:05 43.16509 -72.57041 32656 ft 514 kts 75°
2026-04-20 20:05 43.17527 -72.52352 31719 ft 512 kts 75°
2026-04-20 20:05 43.18516 -72.47762 30952 ft 505 kts 75°
2026-04-20 20:06 43.19514 -72.43106 30103 ft 500 kts 75°
2026-04-20 20:06 43.20482 -72.38585 29282 ft 491 kts 74°
2026-04-20 20:06 43.21434 -72.34133 28451 ft 483 kts 74°
2026-04-20 20:06 43.22367 -72.29763 27822 ft 471 kts 74°
2026-04-20 20:07 43.23279 -72.25481 27165 ft 465 kts 74°
2026-04-20 20:07 43.24179 -72.21251 26544 ft 460 kts 74°
2026-04-20 20:07 43.25072 -72.17055 25921 ft 454 kts 74°
2026-04-20 20:07 43.25945 -72.12946 25314 ft 444 kts 74°
2026-04-20 20:08 43.26797 -72.08930 24723 ft 435 kts 74°
2026-04-20 20:08 43.27635 -72.04980 24168 ft 427 kts 74°
2026-04-20 20:08 43.28455 -72.01106 23610 ft 420 kts 74°
2026-04-20 20:08 43.29260 -71.97281 23056 ft 412 kts 74°
2026-04-20 20:09 43.30048 -71.93531 22572 ft 407 kts 73°
2026-04-20 20:09 43.30830 -71.89806 22076 ft 408 kts 74°
2026-04-20 20:09 43.31613 -71.86062 21599 ft 407 kts 74°
2026-04-20 20:09 43.32393 -71.82338 21114 ft 405 kts 74°
2026-04-20 20:10 43.33167 -71.78635 20613 ft 402 kts 74°
2026-04-20 20:10 43.33937 -71.74948 20121 ft 400 kts 73°
2026-04-20 20:10 43.34689 -71.71336 19626 ft 398 kts 73°
2026-04-20 20:10 43.35447 -71.67687 19106 ft 397 kts 73°
2026-04-20 20:11 43.36202 -71.64048 18590 ft 395 kts 73°
2026-04-20 20:11 43.36951 -71.60427 18019 ft 393 kts 73°
2026-04-20 20:11 43.37694 -71.56820 17494 ft 390 kts 74°
2026-04-20 20:11 43.38428 -71.53247 16886 ft 388 kts 74°
2026-04-20 20:12 43.39163 -71.49667 16284 ft 389 kts 74°
2026-04-20 20:12 43.39895 -71.46102 15780 ft 386 kts 74°
2026-04-20 20:12 43.40621 -71.42564 15274 ft 384 kts 74°
2026-04-20 20:13 43.42064 -71.35532 14265 ft 380 kts 75°
2026-04-20 20:13 43.42778 -71.32036 13730 ft 378 kts 75°
2026-04-20 20:13 43.43485 -71.28567 13205 ft 374 kts 75°
2026-04-20 20:13 43.44181 -71.25143 12699 ft 370 kts 74°
2026-04-20 20:14 43.44868 -71.21744 12177 ft 366 kts 75°
2026-04-20 20:14 43.45547 -71.18381 11655 ft 362 kts 74°
2026-04-20 20:14 43.46217 -71.15064 11135 ft 359 kts 74°
2026-04-20 20:14 43.46943 -71.11798 10740 ft 352 kts 71°
2026-04-20 20:15 43.47751 -71.08653 10475 ft 343 kts 69°
2026-04-20 20:15 43.48584 -71.05645 10346 ft 329 kts 68°
2026-04-20 20:15 43.49396 -71.02769 10213 ft 317 kts 68°
2026-04-20 20:15 43.50177 -70.99984 10015 ft 308 kts 68°
2026-04-20 20:16 43.50929 -70.97262 9867 ft 303 kts 69°
2026-04-20 20:16 43.51670 -70.94544 9775 ft 303 kts 69°
2026-04-20 20:16 43.52404 -70.91833 9609 ft 301 kts 69°
2026-04-20 20:16 43.53131 -70.89129 9436 ft 301 kts 69°
2026-04-20 20:17 43.53703 -70.86371 9272 ft 299 kts 81°
2026-04-20 20:17 43.53812 -70.83516 9097 ft 299 kts 95°
2026-04-20 20:17 43.53644 -70.80662 8927 ft 297 kts 96°
2026-04-20 20:17 43.53485 -70.77825 8756 ft 296 kts 95°
2026-04-20 20:18 43.53335 -70.75003 8585 ft 295 kts 95°
2026-04-20 20:18 43.53186 -70.72182 8428 ft 295 kts 96°
2026-04-20 20:18 43.53035 -70.69369 8251 ft 294 kts 95°
2026-04-20 20:18 43.52885 -70.66607 8086 ft 292 kts 95°
2026-04-20 20:19 43.52729 -70.63783 7924 ft 290 kts 95°
2026-04-20 20:19 43.52577 -70.61051 7754 ft 289 kts 95°
2026-04-20 20:19 43.52420 -70.58255 7585 ft 289 kts 95°
2026-04-20 20:19 43.52266 -70.55547 7424 ft 286 kts 95°
2026-04-20 20:20 43.52110 -70.52811 7260 ft 286 kts 94°
2026-04-20 20:20 43.51956 -70.50070 7097 ft 287 kts 94°
2026-04-20 20:20 43.51803 -70.47332 6930 ft 286 kts 94°
2026-04-20 20:20 43.51650 -70.44619 6768 ft 283 kts 94°
2026-04-20 20:21 43.51497 -70.41903 6606 ft 283 kts 94°
2026-04-20 20:21 43.51341 -70.39187 6437 ft 285 kts 95°
2026-04-20 20:21 43.51186 -70.36485 6271 ft 283 kts 94°
2026-04-20 20:21 43.51031 -70.33798 6107 ft 281 kts 94°
2026-04-20 20:22 43.50925 -70.31987 5991 ft 281 kts 94°
2026-04-20 20:22 43.50718 -70.28435 5787 ft 281 kts 94°
2026-04-20 20:22 43.50561 -70.25763 5628 ft 279 kts 94°
2026-04-20 20:22 43.50404 -70.23111 5467 ft 276 kts 93°
2026-04-20 20:23 43.50248 -70.20471 5302 ft 277 kts 93°
2026-04-20 20:23 43.50092 -70.17825 5151 ft 277 kts 92°
2026-04-20 20:23 43.49935 -70.15189 4986 ft 275 kts 93°
2026-04-20 20:23 43.49777 -70.12585 4826 ft 272 kts 93°
2026-04-20 20:24 43.49672 -70.10864 4721 ft 273 kts 93°
2026-04-20 20:24 43.49515 -70.08266 4561 ft 273 kts 92°
2026-04-20 20:24 43.49567 -70.05675 4409 ft 268 kts 76°
2026-04-20 20:24 43.50189 -70.03292 4256 ft 263 kts 57°
2026-04-20 20:25 43.51291 -70.01330 4093 ft 257 kts 39°
2026-04-20 20:25 43.52743 -69.99917 3934 ft 256 kts 26°
2026-04-20 20:25 43.54289 -69.98699 3774 ft 254 kts 26°
2026-04-20 20:25 43.55788 -69.97525 3661 ft 241 kts 23°
2026-04-20 20:26 43.57336 -69.96950 3548 ft 224 kts
2026-04-20 20:26 43.58830 -69.97101 3450 ft 209 kts 344°
2026-04-20 20:26 43.60137 -69.97814 3372 ft 198 kts 329°
2026-04-20 20:26 43.61194 -69.98954 3297 ft 189 kts 315°
2026-04-20 20:27 43.61946 -70.00357 3238 ft 176 kts 301°
2026-04-20 20:27 43.62394 -70.01879 3133 ft 167 kts 288°
2026-04-20 20:27 43.62574 -70.03420 3054 ft 161 kts 278°
2026-04-20 20:27 43.62680 -70.04937 3006 ft 157 kts 279°
2026-04-20 20:28 43.62786 -70.06433 3005 ft 156 kts 280°
2026-04-20 20:28 43.62890 -70.07918 3007 ft 155 kts 280°
2026-04-20 20:28 43.62993 -70.09396 2986 ft 155 kts 280°
2026-04-20 20:28 43.63096 -70.10873 2850 ft 155 kts 279°
2026-04-20 20:29 43.63199 -70.12353 2662 ft 155 kts 279°
2026-04-20 20:29 43.63302 -70.13833 2457 ft 155 kts 279°
2026-04-20 20:29 43.63404 -70.15315 2244 ft 155 kts 279°
2026-04-20 20:29 43.63507 -70.16799 2027 ft 155 kts 280°
2026-04-20 20:30 43.63608 -70.18277 1814 ft 152 kts 279°
2026-04-20 20:30 43.63700 -70.19635 1602 ft 134 kts 281°
2026-04-20 20:30 43.63785 -70.20871 1423 ft 129 kts 281°
2026-04-20 20:30 43.63871 -70.22105 1241 ft 126 kts 281°
2026-04-20 20:31 43.63953 -70.23296 1069 ft 127 kts 281°
2026-04-20 20:31 43.64036 -70.24518 875 ft 125 kts 281°
2026-04-20 20:31 43.64119 -70.25717 648 ft 125 kts 280°
2026-04-20 20:31 43.64200 -70.26887 512 ft 121 kts 278°
2026-04-20 20:32 43.64281 -70.28067 360 ft 127 kts 277°
2026-04-20 20:32 43.64363 -70.29295 194 ft 131 kts 277°
2026-04-20 20:32 43.64448 -70.30527 62 ft 120 kts 276°
2026-04-20 20:32 43.64511 -70.31488 89 ft 77 kts 276°
2026-04-20 20:33 43.64545 -70.31989 97 ft 24 kts 275°
2026-04-20 20:33 43.64572 -70.32092 98 ft 10 kts 333°
2026-04-20 20:33 43.64646 -70.32069 98 ft 12 kts 39°
2026-04-20 20:33 43.64651 -70.31941 93 ft 16 kts 97°
2026-04-20 20:34 43.64641 -70.31778 91 ft 19 kts 95°
2026-04-20 20:34 43.64628 -70.31587 89 ft 21 kts 95°
2026-04-20 20:34 43.64615 -70.31389 85 ft 19 kts 95°
2026-04-20 20:34 43.64629 -70.31267 70 ft 12 kts 50°
2026-04-20 20:35 43.64668 -70.31230 66 ft 4 kts 30°
2026-04-20 20:35 43.64681 -70.31220 70 ft 1 kts 29°
2026-04-20 20:35 43.64686 -70.31215 70 ft 0 kts 30°